GFSNE_850_spd_189.txt.gz
Wind_Speed
32 27 24 24 28 23 25 28 24 19 16 15 12 12 9 9 7 5 2 4 7 9 12 15 17 18 19 21 23 25 27 27 28 29 27 29 33 31
30 32 28 29 29 28 29 25 19 14 13 13 12 16 11 9 8 5 0 1 7 10 13 14 17 18 19 21 22 24 26 28 30 29 29 28 31 33
31 29 29 31 29 26 28 28 22 16 19 20 18 17 14 11 9 5 2 4 5 9 11 13 16 18 19 21 22 22 24 27 29 29 30 28 28 32
32 31 28 27 25 27 26 24 25 20 25 23 21 18 16 14 11 9 8 5 4 7 9 12 14 16 17 19 21 22 23 25 27 28 29 29 27 28
33 31 34 28 27 27 29 27 25 23 22 22 23 18 17 15 12 10 8 5 2 5 9 12 13 15 17 17 18 19 22 24 25 26 28 29 29 29
34 36 33 31 29 30 28 25 27 25 23 22 20 19 16 14 10 8 8 7 4 1 8 10 16 20 19 16 18 19 21 22 23 24 25 27 29 30
36 36 29 29 27 28 28 28 27 26 24 22 21 20 16 17 16 14 8 7 5 4 3 3 4 4 12 14 16 18 19 21 22 21 23 24 27 30
36 30 30 32 32 31 28 28 26 24 24 22 20 21 20 18 16 14 10 10 6 2 4 5 2 4 9 12 15 16 17 18 20 21 20 20 23 28
30 30 31 30 30 28 26 24 25 24 21 17 17 20 20 17 15 12 11 9 7 6 3 3 3 4 5 16 14 15 15 16 18 19 19 18 19 25
28 28 27 30 31 28 26 26 25 26 25 24 23 22 20 17 14 9 9 10 10 6 3 3 12 10 6 14 13 14 14 14 16 17 18 17 17 19
27 28 28 28 28 28 29 27 27 26 24 20 16 17 16 16 16 16 13 8 7 8 5 5 10 8 10 11 12 16 14 13 12 14 15 15 13 14
26 24 24 25 27 26 24 25 25 25 23 22 19 18 17 15 14 15 14 11 14 11 6 6 6 6 6 14 16 14 11 13 14 15 15 16 14 13
28 26 24 24 22 23 24 24 23 21 22 21 20 19 18 17 17 16 13 15 13 12 7 7 6 6 4 6 14 17 13 12 10 12 13 16 17 18
24 24 25 25 24 24 22 23 21 20 20 20 19 18 17 17 16 15 14 12 10 9 8 8 8 6 5 5 8 11 11 12 9 10 12 13 12 15
21 24 24 25 24 24 25 22 21 20 19 18 17 16 16 16 14 13 12 10 10 10 9 9 8 6 6 5 5 6 6 10 10 10 8 12 13 11
24 21 21 23 22 23 23 23 22 20 18 17 15 14 13 13 13 12 11 11 8 10 10 9 8 6 5 6 5 4 5 4 9 11 8 7 11 13
22 21 22 22 21 21 21 22 21 19 18 16 14 14 13 11 9 9 8 8 8 7 10 9 9 8 8 7 4 6 5 5 7 9 6 6 7 12
22 21 22 21 19 19 18 18 20 18 17 16 15 15 12 11 10 11 10 11 9 9 9 8 9 5 7 10 9 7 6 5 7 8 7 8 7 7
23 21 21 20 19 16 15 16 17 17 17 16 16 14 12 11 13 11 11 11 11 11 11 10 9 8 9 9 13 14 12 7 7 7 7 8 9 8
20 19 18 18 18 18 19 18 15 14 16 17 16 15 15 13 12 13 12 11 11 11 12 11 11 11 9 8 8 10 17 14 8 8 8 10 11 11
22 20 19 19 19 19 18 14 15 17 18 18 14 14 14 14 14 13 12 13 13 12 12 12 14 15 14 14 11 9 15 14 15 13 13 13 9 8
21 20 18 17 16 17 15 17 17 18 19 15 14 14 15 15 14 14 14 14 14 13 11 11 14 18 14 9 11 10 10 15 17 18 13 11 9 6
17 15 16 16 15 15 16 17 17 16 14 15 14 16 16 14 13 13 14 14 11 10 11 12 12 9 8 10 11 11 11 13 9 9 13 17 19 16

GFSNE_850_spd_195.txt.gz
Wind_Speed
66 63 64 57 42 43 46 50 53 36 35 33 33 30 26 25 21 18 16 14 11 7 5 2 1 2 3 5 7 9 11 13 15 15 17 19 21 23
65 66 62 58 48 45 45 45 49 38 34 38 35 34 29 23 22 20 17 14 12 9 6 4 2 1 3 5 7 9 12 14 16 17 18 20 21 22
68 66 57 56 49 44 47 51 41 29 29 27 37 29 24 24 25 23 18 14 12 9 6 4 1 1 2 4 7 10 13 14 16 17 19 20 21 21
68 63 61 59 48 48 46 39 35 31 26 29 34 32 27 30 25 24 20 17 12 9 7 4 2 2 2 5 8 10 13 15 17 17 18 19 21 22
67 63 60 59 54 47 37 36 35 31 25 27 36 32 30 30 27 23 22 18 13 9 6 4 3 4 3 6 9 12 14 16 16 18 18 19 20 21
59 62 58 58 58 46 43 37 36 31 32 35 28 30 33 32 31 30 27 20 14 12 7 4 1 3 5 7 9 11 13 16 17 18 19 19 20 21
54 56 55 51 46 45 45 40 39 38 38 33 27 35 40 38 39 33 26 21 17 12 8 5 3 2 4 7 9 11 13 14 16 17 17 19 19 20
54 50 46 40 40 43 41 43 44 46 37 32 34 40 42 41 39 39 32 26 21 16 12 8 7 5 4 8 10 10 13 14 15 16 17 17 18 19
53 47 45 45 40 37 38 38 39 39 35 39 41 42 41 41 38 37 34 28 21 13 17 14 11 10 9 8 10 10 11 12 14 15 15 15 16 19
40 43 43 43 39 39 36 38 32 33 34 32 32 33 35 35 35 33 29 24 20 16 20 20 17 15 12 10 10 9 10 11 13 13 12 12 14 15
40 40 41 40 39 38 42 36 33 30 30 27 24 22 24 27 32 30 29 28 25 23 22 21 19 16 14 14 10 7 8 10 11 12 12 9 11 13
35 35 34 35 35 33 32 32 35 35 30 27 26 23 24 27 32 31 27 28 26 21 23 24 19 15 12 15 9 6 6 9 11 12 11 13 13 13
31 30 28 27 29 25 24 28 30 31 31 28 27 24 26 29 32 31 27 24 23 20 14 21 18 16 15 9 8 5 5 8 9 9 10 9 13 15
28 31 28 26 26 20 19 23 27 28 31 30 29 27 27 31 32 29 26 24 22 19 14 15 16 14 13 12 10 7 6 7 9 7 11 8 10 13
18 20 21 21 20 20 22 25 27 30 30 31 30 27 27 29 30 28 28 26 24 21 18 15 14 13 13 12 10 9 8 6 8 8 10 10 9 11
19 19 18 18 19 20 24 25 26 27 27 29 28 26 26 27 26 25 25 23 22 21 18 15 14 14 14 13 11 10 8 5 7 8 9 8 10 11
17 17 18 20 21 21 22 23 24 24 25 25 26 25 24 23 23 23 22 21 20 18 15 14 13 13 11 12 9 9 8 6 6 9 10 7 7 10
19 18 19 20 19 19 20 22 23 24 24 24 23 22 23 22 21 22 21 19 18 17 14 12 10 10 10 11 10 9 9 9 9 11 11 11 8 10
13 18 21 22 22 23 22 22 24 23 22 22 22 22 20 17 17 19 18 16 13 11 11 12 12 10 9 11 11 12 12 13 11 13 14 14 13 14
11 15 18 20 20 18 19 20 21 21 22 23 22 19 18 15 17 16 15 14 13 14 15 15 17 15 11 9 11 11 11 11 12 12 9 10 14 17
13 14 14 16 16 15 14 15 18 20 21 23 22 21 18 17 17 15 15 15 14 17 20 17 14 13 12 13 14 14 12 14 15 11 11 12 12 9
11 12 13 14 15 15 15 16 16 15 16 17 19 21 19 17 17 18 19 18 18 17 18 19 15 16 18 19 17 17 16 14 12 12 11 11 9 6
11 11 13 13 15 15 14 14 15 15 18 17 17 17 17 18 16 16 18 17 17 18 18 19 16 13 14 15 15 16 14 11 12 15 13 10 12 9

GFSNE_850_spd_198.txt.gz
Wind_Speed
71 72 70 56 57 50 48 57 53 37 37 38 44 37 30 30 26 21 20 20 18 16 14 11 9 7 5 3 0 2 3 5 7 8 10 12 13 14
68 67 73 64 58 56 55 56 51 44 36 43 50 44 38 30 25 22 21 22 19 17 15 12 10 8 6 3 2 2 3 5 7 9 11 13 14 15
63 62 68 66 60 57 56 56 54 45 41 42 46 40 36 32 30 24 27 24 20 18 15 13 9 7 5 3 1 2 4 6 7 9 11 12 14 16
68 68 68 65 59 59 56 57 51 46 48 52 47 43 37 35 29 28 27 24 23 19 15 12 10 8 6 4 2 2 3 6 8 9 10 12 13 15
63 67 66 65 60 55 57 54 55 45 38 45 48 41 36 36 32 27 30 25 22 18 15 13 11 8 6 4 1 3 5 7 9 9 10 11 13 15
64 69 63 66 62 60 54 57 51 45 40 38 37 40 41 39 34 35 31 27 25 21 17 13 13 10 7 4 1 2 5 7 9 10 11 12 13 14
49 59 62 61 62 57 57 57 57 47 41 33 38 45 45 43 41 36 33 32 26 22 18 16 13 10 5 2 1 4 6 8 9 10 12 12 13 15
46 52 53 53 54 54 55 54 55 47 35 31 41 47 48 45 42 40 40 36 32 26 22 19 16 12 8 3 1 4 6 8 9 10 11 12 13 14
38 49 50 52 51 49 49 46 42 35 36 38 44 45 43 44 42 42 42 42 36 24 26 22 18 14 10 6 4 6 6 7 9 10 11 13 13 13
38 41 48 51 52 48 42 42 40 34 35 38 34 31 26 29 34 40 40 36 28 21 27 24 20 18 13 10 8 8 7 8 8 9 10 10 11 12
41 45 50 50 47 44 48 42 38 38 36 32 27 25 29 25 32 37 37 37 33 28 27 24 23 19 16 14 11 10 8 7 7 8 8 8 9 9
33 33 34 34 35 36 37 39 38 35 35 30 23 20 21 26 28 35 36 38 36 27 31 31 23 22 16 19 16 11 9 7 5 7 9 10 8 7
25 26 27 29 30 31 34 36 34 33 32 30 27 23 24 27 30 35 32 34 35 29 21 30 27 23 20 7 8 13 10 6 4 5 6 9 9 8
24 25 29 28 31 30 26 27 27 27 28 26 26 26 27 28 30 31 31 27 26 25 17 18 23 21 21 17 12 13 10 8 4 4 6 7 9 10
24 25 25 24 22 22 22 21 21 21 24 26 28 26 26 27 30 32 30 29 28 27 25 19 17 16 18 17 16 14 12 9 7 4 4 7 9 9
23 24 24 23 20 22 22 21 22 23 24 27 27 24 25 27 29 30 32 31 30 27 23 20 18 18 17 17 16 13 12 8 7 5 3 6 9 9
23 21 20 20 20 21 22 23 24 24 24 24 24 25 25 27 29 30 29 28 28 26 23 21 20 18 16 15 15 14 13 12 9 6 5 7 9 11
19 16 17 17 18 19 21 23 23 24 24 24 24 23 24 26 27 28 27 26 24 23 21 20 18 17 15 14 14 14 14 13 10 9 8 10 12 12
14 15 13 14 16 16 17 19 21 21 21 20 20 20 21 22 22 23 24 23 20 18 17 16 15 13 13 13 13 15 15 13 12 12 10 12 15 14
6 9 12 14 14 13 12 12 15 17 18 18 18 18 18 17 19 20 20 20 19 17 16 15 15 14 11 8 9 11 12 14 14 13 12 14 13 14
5 6 6 9 11 10 10 10 11 13 15 15 16 16 15 15 14 15 18 18 16 15 16 17 15 12 13 12 12 10 9 10 10 12 13 12 12 12
4 5 7 9 9 9 8 9 10 12 13 15 14 14 14 14 14 17 17 18 18 16 16 15 15 15 17 18 16 13 11 12 14 14 13 11 10 7
6 6 6 7 7 6 7 7 7 9 11 13 15 15 16 17 16 15 15 15 16 14 14 14 14 14 15 19 19 16 14 13 12 11 12 11 9 9

GFSNE_850_spd_201.txt.gz
Wind_Speed
53 55 56 60 60 62 55 48 49 26 37 42 49 52 45 42 38 33 31 28 27 25 21 19 17 14 11 8 6 4 2 0 1 2 5 7 9 10
46 51 55 58 57 56 60 52 54 46 34 46 47 50 48 42 35 30 28 29 26 25 25 22 18 15 11 9 7 5 4 2 2 2 4 6 8 10
50 52 54 57 55 52 49 56 56 52 40 37 49 49 48 42 38 35 35 33 29 29 25 22 19 15 13 11 9 7 4 3 3 3 4 6 8 10
55 54 55 53 64 60 60 58 56 54 46 46 47 53 51 46 42 39 37 33 31 27 26 23 20 16 15 13 10 8 5 4 3 3 4 6 8 11
55 56 55 53 61 59 63 57 55 54 54 54 51 50 55 49 43 38 35 34 28 29 26 25 20 19 17 15 12 9 5 2 1 2 5 6 7 10
51 58 59 57 58 63 57 59 57 56 54 51 50 57 58 52 45 44 40 32 34 30 28 24 24 21 18 15 12 9 5 1 2 3 5 6 8 9
43 50 58 58 57 67 63 57 61 58 56 55 55 60 59 56 51 46 40 39 33 31 29 28 26 22 18 15 11 8 4 2 2 3 5 7 7 8
38 32 39 49 54 62 64 67 71 68 59 57 55 62 61 58 53 49 44 45 38 33 31 28 25 22 16 12 10 7 5 2 3 4 5 6 7 8
23 20 31 44 59 61 59 62 59 63 62 56 54 57 59 60 54 50 45 44 43 37 34 29 26 22 17 13 10 6 4 3 3 5 6 6 8 9
13 18 31 38 51 57 53 54 49 47 45 46 47 47 45 45 48 46 46 43 35 28 35 30 28 25 20 15 10 6 4 4 4 5 6 6 7 9
6 21 30 40 51 53 47 47 49 46 46 31 24 23 27 35 48 46 44 45 37 32 34 26 28 26 22 17 13 9 6 5 5 6 5 4 5 7
17 23 27 38 41 45 50 51 50 44 35 22 18 20 28 33 35 36 36 42 40 27 29 32 25 26 21 20 17 14 10 8 7 7 5 3 2 4
18 23 27 32 35 38 42 45 41 35 26 28 27 31 32 33 38 35 31 37 40 31 29 32 28 25 17 8 22 20 15 12 8 6 6 4 1 2
11 15 18 22 23 27 32 32 27 29 32 31 29 31 30 33 30 27 28 28 31 27 10 23 23 23 23 18 11 15 18 15 10 7 6 6 2 3
13 15 16 17 17 17 18 21 23 27 28 30 31 30 25 21 24 26 25 23 24 25 18 11 10 16 17 19 18 14 18 17 12 9 7 5 3 4
20 20 19 18 18 21 21 21 22 25 26 26 23 17 20 23 24 25 27 26 25 26 22 17 14 17 17 19 17 14 14 10 12 11 9 6 4 5
18 19 18 19 21 20 21 21 20 18 16 15 17 19 20 20 22 24 25 26 26 27 25 22 20 20 19 16 17 15 14 14 10 10 9 6 4 6
15 15 15 16 18 18 18 18 16 15 15 16 18 18 19 20 22 23 22 23 25 25 23 22 21 20 18 18 17 16 15 14 13 11 10 7 6 9
17 16 13 11 12 13 15 15 17 17 16 16 16 17 18 19 21 22 23 22 21 20 20 19 19 18 19 19 16 17 15 16 15 13 10 10 10 12
10 11 10 10 10 10 11 12 14 15 15 14 14 15 16 17 20 20 19 19 19 18 18 17 17 16 13 10 9 9 13 13 14 12 13 12 14 13
10 9 8 8 7 8 10 10 10 11 12 13 13 13 14 14 13 13 14 15 16 15 16 15 12 12 14 13 11 9 9 12 12 12 11 14 14 13
11 11 12 12 11 10 10 11 12 11 10 10 10 10 10 11 10 10 12 14 15 14 13 12 13 14 15 17 15 11 10 11 12 12 12 12 12 9
13 13 13 12 11 10 9 9 9 9 10 10 10 10 10 11 9 10 10 11 13 15 13 13 14 14 14 15 16 15 13 13 13 12 11 11 11 9